Alicante, Spain

12:35 PM CEST on June 20, 2018 (GMT +0200)
Alicante

Weather History for LEAL - June, 2018

Change the Weather History Date:

Wednesday, June 13, 2018

  Actual Average Record
Temperature  
Mean Temperature 77 °F -  
Max Temperature 86 °F 82 °F 99 °F (2016)
Min Temperature 68 °F 65 °F 57 °F (1998)
Cooling Degree Days 12    
Growing Degree Days 27 (Base 50)    
Moisture  
Dew Point 56 °F    
Average Humidity 52    
Maximum Humidity 73    
Minimum Humidity 12    
Precipitation  
Precipitation 0.00 in - - ()
Sea Level Pressure  
Sea Level Pressure 29.95 in    
Wind  
Wind Speed 8 mph ()    
Max Wind Speed 18 mph    
Max Gust Speed -    
Visibility 8.4 miles    
Events      
Averages and records for this station are not official NWS values.
T = Trace of Precipitation, MM = Missing Value Source: Averaged Metar Reports

Daily Weather History Graph

Daily Weather History Graph

Search for Another Location

Airport or City:

Astronomy

Jun. 13, 2018 Rise Set
Actual Time 6:38 AM CEST 9:26 PM CEST
Civil Twilight 6:06 AM CEST 9:58 PM CEST
Nautical Twilight 5:27 AM CEST 10:37 PM CEST
Astronomical Twilight 4:42 AM CEST 11:22 PM CEST
Moon 6:26 AM CEST (6/13) 9:05 PM CEST (6/13)
Length of Visible Light 15h 51m
Length of Day
14h 48m
Waning Crescent, 0% of the Moon is Illuminated
Jun 13
Waning Crescent
Jun 13
New
Jun 20
First Quarter
Jun 28
Full
Jul 6
Last Quarter

Hourly Weather History & Observations

Time (CEST) Temp. Dew Point Humidity Pressure Visibility Wind Dir Wind Speed Gust Speed Precip Events Conditions
12:00 AM 75.2 °F 59.0 °F 57% 29.95 in - Variable 4.6 mph - N/A   Clear
12:30 AM 71.6 °F 59.0 °F 64% 29.95 in - Variable 2.3 mph - N/A   Clear
1:00 AM 71 °F 56 °F 50% 29.95 in - West 4.6 mph - -  
1:00 AM 69.8 °F 59.0 °F 68% 29.95 in - West 4.6 mph - N/A   Clear
1:30 AM 71.6 °F 57.2 °F 60% 29.95 in - WNW 5.8 mph - N/A   Clear
2:00 AM 72 °F 54 °F 43% 29.95 in 25 mi North 2.3 mph - -   Clear
2:00 AM 71.6 °F 55.4 °F 57% 29.95 in - Variable 2.3 mph - N/A   Clear
2:30 AM 71.6 °F 55.4 °F 57% 29.95 in - Variable 1.2 mph - N/A   Clear
3:00 AM 71 °F 53 °F 41% 29.95 in - NW 6.9 mph - -  
3:00 AM 71.6 °F 53.6 °F 53% 29.95 in - NW 6.9 mph - N/A   Clear
3:30 AM 71.6 °F 53.6 °F 53% 29.92 in - NW 6.9 mph - N/A   Clear
4:00 AM 72 °F 52 °F 38% 29.94 in - WNW 9.2 mph - -  
4:00 AM 71.6 °F 53.6 °F 53% 29.92 in - NW 8.1 mph - N/A   Clear
4:30 AM 71.6 °F 53.6 °F 53% 29.92 in - NW 6.9 mph - N/A   Clear
5:00 AM 69.8 °F 53.6 °F 56% 29.92 in - NW 9.2 mph - N/A   Clear
5:30 AM 68.0 °F 53.6 °F 60% 29.92 in - WNW 6.9 mph - N/A   Clear
6:00 AM 69.8 °F 51.8 °F 53% 29.92 in - WNW 8.1 mph - N/A   Clear
6:30 AM 71.6 °F 51.8 °F 50% 29.92 in - WNW 8.1 mph - N/A   Clear
7:00 AM 71 °F 51 °F 38% 29.94 in - NW 13.8 mph - -  
7:00 AM 71.6 °F 51.8 °F 50% 29.95 in - NW 11.5 mph - N/A   Clear
7:30 AM 73.4 °F 51.8 °F 47% 29.95 in - NW 12.7 mph - N/A   Clear
8:00 AM 74 °F 49 °F 30% 29.96 in 31 mi WNW 15.0 mph - -   Scattered Clouds
8:00 AM 73.4 °F 51.8 °F 47% 29.95 in - WNW 13.8 mph - N/A   Clear
8:30 AM 75.2 °F 50.0 °F 41% 29.95 in - WNW 13.8 mph - N/A   Clear
9:00 AM 76 °F 48 °F 26% 29.97 in - WNW 13.8 mph - -  
9:00 AM 75.2 °F 50.0 °F 41% 29.95 in - WNW 13.8 mph - N/A   Clear
9:30 AM 77.0 °F 50.0 °F 39% 29.95 in - WNW 18.4 mph - N/A   Clear
10:00 AM 77.0 °F 50.0 °F 39% 29.95 in - WNW 17.3 mph - N/A   Clear
10:30 AM 80.6 °F 48.2 °F 32% 29.95 in - WNW 15.0 mph - N/A   Clear
11:00 AM 81 °F 46 °F 19% 29.96 in 31 mi WNW 16.1 mph - -   Scattered Clouds
11:00 AM 82.4 °F 48.2 °F 30% 29.95 in - West 15.0 mph - N/A   Clear
11:30 AM 82.4 °F 50.0 °F 32% 29.95 in - WNW 12.7 mph - N/A   Clear
12:00 PM 84.2 °F 48.2 °F 29% 29.95 in 6.2 mi NW 9.2 mph - N/A   Partly Cloudy
12:30 PM 86.0 °F 46.4 °F 25% 29.95 in 6.2 mi WNW 10.4 mph - N/A   Partly Cloudy
1:00 PM 86 °F 41 °F 12% 29.97 in - WNW 16.1 mph - -  
1:00 PM 86.0 °F 44.6 °F 23% 29.95 in 6.2 mi WNW 17.3 mph - N/A   Partly Cloudy
1:30 PM 77.0 °F 60.8 °F 57% 29.98 in 6.2 mi ESE 18.4 mph - N/A   Partly Cloudy
2:00 PM 78 °F 61 °F 45% 29.98 in 19 mi ESE 13.8 mph - -   Scattered Clouds
2:00 PM 77.0 °F 60.8 °F 57% 29.98 in 6.2 mi ESE 15.0 mph - N/A   Partly Cloudy
2:30 PM 75.2 °F 62.6 °F 65% 29.98 in 6.2 mi ESE 11.5 mph - N/A   Partly Cloudy
3:00 PM 77.0 °F 60.8 °F 57% 29.95 in 6.2 mi East 11.5 mph - N/A   Partly Cloudy
3:30 PM 75.2 °F 60.8 °F 61% 29.95 in 6.2 mi East 12.7 mph - N/A   Partly Cloudy
4:00 PM 77 °F 59 °F 44% 29.96 in - East 11.5 mph - -  
4:00 PM 77.0 °F 60.8 °F 57% 29.95 in 6.2 mi East 10.4 mph - N/A   Partly Cloudy
4:30 PM 77.0 °F 60.8 °F 57% 29.95 in - East 10.4 mph - N/A   Clear
5:00 PM 77 °F 62 °F 50% 29.95 in 16 mi ESE 11.5 mph - -   Scattered Clouds
5:00 PM 77.0 °F 62.6 °F 61% 29.95 in 6.2 mi ESE 10.4 mph - N/A   Partly Cloudy
5:30 PM 75.2 °F 62.6 °F 65% 29.95 in 6.2 mi ESE 12.7 mph - N/A   Partly Cloudy
6:00 PM 76 °F 62 °F 52% 29.94 in - ESE 11.5 mph - -  
6:00 PM 75.2 °F 62.6 °F 65% 29.95 in 6.2 mi ESE 11.5 mph - N/A   Partly Cloudy
6:30 PM 73.4 °F 62.6 °F 69% 29.95 in 6.2 mi ESE 10.4 mph - N/A   Partly Cloudy
7:00 PM 73.4 °F 62.6 °F 69% 29.95 in 6.2 mi ESE 8.1 mph - N/A   Partly Cloudy
7:30 PM 73.4 °F 62.6 °F 69% 29.95 in 6.2 mi East 9.2 mph - N/A   Partly Cloudy
8:00 PM 73 °F 61 °F 57% 29.95 in 19 mi East 8.1 mph - -   Scattered Clouds
8:00 PM 71.6 °F 62.6 °F 73% 29.95 in - East 8.1 mph - N/A   Clear
8:30 PM 71.6 °F 60.8 °F 69% 29.95 in - East 6.9 mph - N/A   Clear
9:00 PM 71 °F 59 °F 58% 29.96 in - East 5.8 mph - -  
9:00 PM 71.6 °F 60.8 °F 69% 29.95 in - East 5.8 mph - N/A   Clear
9:30 PM 69.8 °F 60.8 °F 73% 29.95 in - East 5.8 mph - N/A   Clear
10:00 PM 70 °F 60 °F 62% 29.96 in - ESE 4.6 mph - -  
10:00 PM 69.8 °F 60.8 °F 73% 29.95 in - East 3.5 mph - N/A   Clear
10:30 PM 69.8 °F 60.8 °F 73% 29.95 in - East 3.5 mph - N/A   Clear
11:00 PM 70 °F 60 °F 62% 29.97 in 12 mi East 2.3 mph - -   Clear
11:00 PM 69.8 °F 60.8 °F 73% 29.98 in - Variable 2.3 mph - N/A   Clear
11:30 PM 69.8 °F 60.8 °F 73% 29.98 in - Calm Calm - N/A   Clear